OBJECT A, 64621

Orbit data source: Space-Track

You're viewing an Uncataloged Satellite

Recently launched and/or uncataloged satellites may have evolving metadata. Metadata may include but not limited to: Owner, Maufacturer, Bus, Motor, and Mission.

OBJECT A, 64621 is a satellite owned by HawkEye 360 (US) in SSO that was launched on Thu, 26 Jun 2025 UTC via an ELECTRON launch vehicle from the Rocket Lab Launch Complex (RLLC). Unknown objects in Earth's orbit typically refer to objects detected orbiting the Earth but have not yet been identified or cataloged. These objects could be anything from previously untracked satellites, spent rocket stages, debris from satellite collisions, or even natural meteoroids temporarily captured by Earth's gravity.

Loading next visibility...
Identifier
64621, 2025-137A
Orbit
SSO
Last TLE update
10 hours ago
Origin
Manufacturer
UTIAS-SFL
Mission
Operational spacecraft
Bus & Motor
HAWK2G, Unknown motor
Mass
31 kg wet, 30 kg dry
Launch date (UTC)
2025-06-26 (5 days ago)
Launch vehicle
ELECTRON
Launch site
Rocket Lab Launch Complex (RLLC)
Object type
Unknown
Shape & HBR
Unknown
Radar Cross Section
Medium (>0.1 m² and <1 m²)

Expand to show TLE details & history

TLE from 10 hours ago
0 OBJECT A
1 64621U 25138A   25181.98531682  .00002305  00000-0  12918-3 0  9991
2 64621  97.4354 186.5096 0013013 287.6001  72.3809 15.14319702   642
Epoch: 2025-06-30T23:38Z
TLE epoch observation values (Epoch: 2025-06-30T23:38:51.373Z)
Latitude
-0.00004°
Longitude
-87.49172°
Altitude
523.418 km
Speed
7.603 km/s
True Right ascension
12h 26m 02s
True Declination
0° 00' 00"
Sunlit
Object was in daylight at epoch
Visualization orbit readout
Latitude
75.63834°
Longitude
-117.54862°
Altitude
543.833 km
Speed
7.593 km/s
Apparent Right ascension
09h 28m 31s
Apparent Declination
21° 45' 06"
Sunlit
Object is in daylight
Visualization observer readout
Local Sidereal Time
21:08:33
Azimuth
354.744° N
Elevation
-28.157°
Doppler factor
1
Orbital elements
Apogee altitude
528.996 km
Perigee altitude
511.043 km
Semi-major axis
6,898.156 km
Eccentricity
0.0013
Inclination
97.4354°
RAAN
186.5096°
Arg. of periapsis
287.6001°
True anomaly
Unknown
Mean anomaly
72.3809°
Eccentric anomaly
Unknown
Mean motion
3.78829 °/min
Orbital period
95.03 mins
BSTAR
0.00012918
Loading maneuver chart data...
Loading SW <> Apogee altitude chart data...
Loading historical data...
Loading historical data...
Loading historical data...
Loading historical data...
Loading historical data...
Loading historical data...
Loading historical data...
Other satellites on launch #137 in the year 2025 (2025-06-26 UTC)

OBJECT A Visibility forecast

Observer location: undefined°, undefined°

Span
Click to sort rows by Start time (UTC) header in descending order
Start Az.
Max El. time (UTC)
Max El. Az.
Max El.
End time (UTC)
End Az.
6 mins2025-07-01 12:54:16.193Z25.493° NE2025-07-01 12:57:16.193Z105.058° ESE38.545°2025-07-01 13:00:16.193Z174.953° S
4 mins2025-07-01 23:36:16.193Z97.001° ESE2025-07-01 23:37:16.193Z74.11° E21.372°2025-07-01 23:40:16.193Z18.709° NNE
4 mins2025-07-02 01:10:16.193Z236.146° WSW2025-07-02 01:11:16.193Z258° W20.568°2025-07-02 01:14:16.193Z314.548° NW
|